Year,Month,Day,Hour,Minute,Value (Times are PST for temperature in C)
2021,04,20,00,00,9.10
2021,04,20,00,01,9.10
2021,04,20,00,02,9.10
2021,04,20,00,03,9.10
2021,04,20,00,04,9.10
2021,04,20,00,05,9.10
2021,04,20,00,06,9.10
2021,04,20,00,07,9.10
2021,04,20,00,08,9.10
2021,04,20,00,09,9.00
2021,04,20,00,10,9.00
2021,04,20,00,11,9.00
2021,04,20,00,12,9.00
2021,04,20,00,13,9.00
2021,04,20,00,14,9.00
2021,04,20,00,15,9.10
2021,04,20,00,16,9.10
2021,04,20,00,17,9.10
2021,04,20,00,18,9.10
2021,04,20,00,19,9.10
2021,04,20,00,20,9.10
2021,04,20,00,21,9.10
2021,04,20,00,22,9.10
2021,04,20,00,23,9.00
2021,04,20,00,24,9.00
2021,04,20,00,25,8.90
2021,04,20,00,26,8.90
2021,04,20,00,27,8.90
2021,04,20,00,28,8.80
2021,04,20,00,29,8.80
2021,04,20,00,30,8.80
2021,04,20,00,31,8.80
2021,04,20,00,32,8.80
2021,04,20,00,33,8.80
2021,04,20,00,34,8.80
2021,04,20,00,35,8.80
2021,04,20,00,36,8.80
2021,04,20,00,37,8.80
2021,04,20,00,38,8.80
2021,04,20,00,39,8.80
2021,04,20,00,40,8.80
2021,04,20,00,41,8.80
2021,04,20,00,42,8.80
2021,04,20,00,43,8.80
2021,04,20,00,44,8.80
2021,04,20,00,45,8.80
2021,04,20,00,46,8.80
2021,04,20,00,47,8.80
2021,04,20,00,48,8.80
2021,04,20,00,49,8.80
2021,04,20,00,50,8.80
2021,04,20,00,51,8.90
2021,04,20,00,52,8.90
2021,04,20,00,53,8.90
2021,04,20,00,54,8.90
2021,04,20,00,55,8.90
2021,04,20,00,56,8.90
2021,04,20,00,57,8.90
2021,04,20,00,58,8.90
2021,04,20,00,59,8.90
2021,04,20,01,00,8.90
2021,04,20,01,01,8.90
2021,04,20,01,02,8.90
2021,04,20,01,03,8.90
2021,04,20,01,04,8.90
2021,04,20,01,05,8.80
2021,04,20,01,06,8.80
2021,04,20,01,07,8.80
2021,04,20,01,08,8.80
2021,04,20,01,09,8.80
2021,04,20,01,10,8.80
2021,04,20,01,11,8.90
2021,04,20,01,12,8.90
2021,04,20,01,13,8.90
2021,04,20,01,14,8.90
2021,04,20,01,15,8.90
2021,04,20,01,16,8.90
2021,04,20,01,17,8.90
2021,04,20,01,18,8.90
2021,04,20,01,19,8.90
2021,04,20,01,20,9.00
2021,04,20,01,21,9.00
2021,04,20,01,22,9.00
2021,04,20,01,23,9.00
2021,04,20,01,24,9.00
2021,04,20,01,25,8.90
2021,04,20,01,26,8.90
2021,04,20,01,27,8.90
2021,04,20,01,28,8.90
2021,04,20,01,29,8.90
2021,04,20,01,30,8.90
2021,04,20,01,31,8.90
2021,04,20,01,32,8.80
2021,04,20,01,33,8.80
2021,04,20,01,34,8.80
2021,04,20,01,35,8.80
2021,04,20,01,36,8.80
2021,04,20,01,37,8.80
2021,04,20,01,38,8.80
2021,04,20,01,39,8.80
2021,04,20,01,40,8.80
2021,04,20,01,41,8.80
2021,04,20,01,42,8.80
2021,04,20,01,43,8.80
2021,04,20,01,44,8.70
2021,04,20,01,45,8.70
2021,04,20,01,46,8.70
2021,04,20,01,47,8.70
2021,04,20,01,48,8.70
2021,04,20,01,49,8.70
2021,04,20,01,50,8.70
2021,04,20,01,51,8.70
2021,04,20,01,52,8.70
2021,04,20,01,53,8.70
2021,04,20,01,54,8.70
2021,04,20,01,55,8.70
2021,04,20,01,56,8.60
2021,04,20,01,57,8.60
2021,04,20,01,58,8.60
2021,04,20,01,59,8.60
2021,04,20,02,00,8.50
2021,04,20,02,01,8.50
2021,04,20,02,02,8.50
2021,04,20,02,03,8.40
2021,04,20,02,04,8.40
2021,04,20,02,05,8.40
2021,04,20,02,06,8.40
2021,04,20,02,07,8.40
2021,04,20,02,08,8.40
2021,04,20,02,09,8.40
2021,04,20,02,10,8.40
2021,04,20,02,11,8.40
2021,04,20,02,12,8.40
2021,04,20,02,13,8.40
2021,04,20,02,14,8.40
2021,04,20,02,15,8.40
2021,04,20,02,16,8.40
2021,04,20,02,17,8.40
2021,04,20,02,18,8.40
2021,04,20,02,19,8.40
2021,04,20,02,20,8.40
2021,04,20,02,21,8.40
2021,04,20,02,22,8.40
2021,04,20,02,23,8.40
2021,04,20,02,24,8.40
2021,04,20,02,25,8.50
2021,04,20,02,26,8.50
2021,04,20,02,27,8.60
2021,04,20,02,28,8.60
2021,04,20,02,29,8.70
2021,04,20,02,30,8.70
2021,04,20,02,31,8.80
2021,04,20,02,32,8.80
2021,04,20,02,33,8.80
2021,04,20,02,34,8.80
2021,04,20,02,35,8.80
2021,04,20,02,36,8.90
2021,04,20,02,37,8.80
2021,04,20,02,38,8.90
2021,04,20,02,39,8.90
2021,04,20,02,40,8.90
2021,04,20,02,41,8.90
2021,04,20,02,42,8.90
2021,04,20,02,43,8.90
2021,04,20,02,44,9.00
2021,04,20,02,45,9.00
2021,04,20,02,46,9.00
2021,04,20,02,47,9.10
2021,04,20,02,48,9.20
2021,04,20,02,49,9.20
2021,04,20,02,50,9.30
2021,04,20,02,51,9.40
2021,04,20,02,52,9.50
2021,04,20,02,53,9.60
2021,04,20,02,54,9.70
2021,04,20,02,55,9.70
2021,04,20,02,56,9.80
2021,04,20,02,57,9.80
2021,04,20,02,58,9.90
2021,04,20,02,59,9.90
2021,04,20,03,00,10.00
2021,04,20,03,01,10.00
2021,04,20,03,02,10.10
2021,04,20,03,03,10.10
2021,04,20,03,04,10.00
2021,04,20,03,05,10.00
2021,04,20,03,06,9.90
2021,04,20,03,07,9.80
2021,04,20,03,08,9.70
2021,04,20,03,09,9.70
2021,04,20,03,10,9.60
2021,04,20,03,11,9.60
2021,04,20,03,12,9.50
2021,04,20,03,13,9.50
2021,04,20,03,14,9.40
2021,04,20,03,15,9.40
2021,04,20,03,16,9.30
2021,04,20,03,17,9.30
2021,04,20,03,18,9.30
2021,04,20,03,19,9.30
2021,04,20,03,20,9.20
2021,04,20,03,21,9.30
2021,04,20,03,22,9.30
2021,04,20,03,23,9.30
2021,04,20,03,24,9.30
2021,04,20,03,25,9.30
2021,04,20,03,26,9.30
2021,04,20,03,27,9.30
2021,04,20,03,28,9.30
2021,04,20,03,29,9.30
2021,04,20,03,30,9.30
2021,04,20,03,31,9.40
2021,04,20,03,32,9.40
2021,04,20,03,33,9.50
2021,04,20,03,34,9.60
2021,04,20,03,35,9.70
2021,04,20,03,36,9.80
2021,04,20,03,37,9.80
2021,04,20,03,38,9.90
2021,04,20,03,39,10.00
2021,04,20,03,40,10.00
2021,04,20,03,41,10.10
2021,04,20,03,42,10.20
2021,04,20,03,43,10.20
2021,04,20,03,44,10.30
2021,04,20,03,45,10.30
2021,04,20,03,46,10.30
2021,04,20,03,47,10.30
2021,04,20,03,48,10.30
2021,04,20,03,49,10.30
2021,04,20,03,50,10.30
2021,04,20,03,51,10.30
2021,04,20,03,52,10.30
2021,04,20,03,53,10.30
2021,04,20,03,54,10.30
2021,04,20,03,55,10.30
2021,04,20,03,56,10.30
2021,04,20,03,57,10.30
2021,04,20,03,58,10.40
2021,04,20,03,59,10.40
2021,04,20,04,00,10.40
2021,04,20,04,01,10.40
2021,04,20,04,02,10.40
2021,04,20,04,03,10.40
2021,04,20,04,04,10.40
2021,04,20,04,05,10.40
2021,04,20,04,06,10.40
2021,04,20,04,07,10.40
2021,04,20,04,08,10.40
2021,04,20,04,09,10.40
2021,04,20,04,10,10.40
2021,04,20,04,11,10.40
2021,04,20,04,12,10.40
2021,04,20,04,13,10.40
2021,04,20,04,14,10.40
2021,04,20,04,15,10.40
2021,04,20,04,16,10.40
2021,04,20,04,17,10.40
2021,04,20,04,18,10.40
2021,04,20,04,19,10.40
2021,04,20,04,20,10.40
2021,04,20,04,21,10.40
2021,04,20,04,22,10.40
2021,04,20,04,23,10.40
2021,04,20,04,24,10.40
2021,04,20,04,25,10.40
2021,04,20,04,26,10.60
2021,04,20,04,27,10.70
2021,04,20,04,28,10.80
2021,04,20,04,29,10.80
2021,04,20,04,30,10.80
2021,04,20,04,31,10.80
2021,04,20,04,32,10.80
2021,04,20,04,33,10.80
2021,04,20,04,34,10.80
2021,04,20,04,35,10.80
2021,04,20,04,36,10.80
2021,04,20,04,37,10.80
2021,04,20,04,38,10.80
2021,04,20,04,39,10.80
2021,04,20,04,40,10.80
2021,04,20,04,41,10.90
2021,04,20,04,42,10.90
2021,04,20,04,43,10.90
2021,04,20,04,44,10.90
2021,04,20,04,45,10.90
2021,04,20,04,46,10.90
2021,04,20,04,47,10.90
2021,04,20,04,48,10.90
2021,04,20,04,49,10.80
2021,04,20,04,50,10.80
2021,04,20,04,51,10.80
2021,04,20,04,52,10.80
2021,04,20,04,53,10.70
2021,04,20,04,54,10.70
2021,04,20,04,55,10.70
2021,04,20,04,56,10.70
2021,04,20,04,57,10.70
2021,04,20,04,58,10.70
2021,04,20,04,59,10.60
2021,04,20,05,00,10.60
2021,04,20,05,01,10.60
2021,04,20,05,02,10.60
2021,04,20,05,03,10.60
2021,04,20,05,04,10.60
2021,04,20,05,05,10.50
2021,04,20,05,06,10.50
2021,04,20,05,07,10.40
2021,04,20,05,08,10.40
2021,04,20,05,09,10.40
2021,04,20,05,10,10.30
2021,04,20,05,11,10.30
2021,04,20,05,12,10.30
2021,04,20,05,13,10.30
2021,04,20,05,14,10.20
2021,04,20,05,15,10.20
2021,04,20,05,16,10.20
2021,04,20,05,17,10.10
2021,04,20,05,18,10.10
2021,04,20,05,19,10.10
2021,04,20,05,20,10.10
2021,04,20,05,21,10.10
2021,04,20,05,22,10.00
2021,04,20,05,23,10.00
2021,04,20,05,24,10.00
2021,04,20,05,25,10.00
2021,04,20,05,26,9.90
2021,04,20,05,27,9.90
2021,04,20,05,28,9.90
2021,04,20,05,29,9.80
2021,04,20,05,30,9.80
2021,04,20,05,31,9.80
2021,04,20,05,32,9.80
2021,04,20,05,33,9.80
2021,04,20,05,34,9.80
2021,04,20,05,35,9.80
2021,04,20,05,36,9.80
2021,04,20,05,37,9.70
2021,04,20,05,38,9.70
2021,04,20,05,39,9.70
2021,04,20,05,40,9.70
2021,04,20,05,41,9.70
2021,04,20,05,42,9.70
2021,04,20,05,43,9.70
2021,04,20,05,44,9.70
2021,04,20,05,45,9.70
2021,04,20,05,46,9.70
2021,04,20,05,47,9.70
2021,04,20,05,48,9.60
2021,04,20,05,49,9.60
2021,04,20,05,50,9.60
2021,04,20,05,51,9.60
2021,04,20,05,52,9.60
2021,04,20,05,53,9.60
2021,04,20,05,54,9.60
2021,04,20,05,55,9.60
2021,04,20,05,56,9.60
2021,04,20,05,57,9.60
2021,04,20,05,58,9.60
2021,04,20,05,59,9.50
2021,04,20,06,00,9.50
2021,04,20,06,01,9.60
2021,04,20,06,02,9.60
2021,04,20,06,03,9.50
2021,04,20,06,04,9.50
2021,04,20,06,05,9.50
2021,04,20,06,06,9.50
2021,04,20,06,07,9.40
2021,04,20,06,08,9.40
2021,04,20,06,09,9.40
2021,04,20,06,10,9.30
2021,04,20,06,11,9.30
2021,04,20,06,12,9.30
2021,04,20,06,13,9.30
2021,04,20,06,14,9.30
2021,04,20,06,15,9.20
2021,04,20,06,16,9.20
2021,04,20,06,17,9.20
2021,04,20,06,18,9.10
2021,04,20,06,19,9.10
2021,04,20,06,20,9.00
2021,04,20,06,21,8.90
2021,04,20,06,22,8.90
2021,04,20,06,23,8.90
2021,04,20,06,24,8.80
2021,04,20,06,25,8.80
2021,04,20,06,26,8.70
2021,04,20,06,27,8.70
2021,04,20,06,28,8.70
2021,04,20,06,29,8.60
2021,04,20,06,30,8.60
2021,04,20,06,31,8.60
2021,04,20,06,32,8.50
2021,04,20,06,33,8.50
2021,04,20,06,34,8.50
2021,04,20,06,35,8.40
2021,04,20,06,36,8.40
2021,04,20,06,37,8.40
2021,04,20,06,38,8.40
2021,04,20,06,39,8.40
2021,04,20,06,40,8.30
2021,04,20,06,41,8.30
2021,04,20,06,42,8.30
2021,04,20,06,43,8.30
2021,04,20,06,44,8.40
2021,04,20,06,45,8.40
2021,04,20,06,46,8.40
2021,04,20,06,47,8.40
2021,04,20,06,48,8.40
2021,04,20,06,49,8.40
2021,04,20,06,50,8.40
2021,04,20,06,51,8.40
2021,04,20,06,52,8.50
2021,04,20,06,53,8.50
2021,04,20,06,54,8.60
2021,04,20,06,55,8.60
2021,04,20,06,56,8.60
2021,04,20,06,57,8.70
2021,04,20,06,58,8.70
2021,04,20,06,59,8.70
2021,04,20,07,00,8.80
2021,04,20,07,01,8.80
2021,04,20,07,02,8.80
2021,04,20,07,03,8.90
2021,04,20,07,04,8.90
2021,04,20,07,05,9.00
2021,04,20,07,06,9.00
2021,04,20,07,07,9.10
2021,04,20,07,08,9.10
2021,04,20,07,09,9.20
2021,04,20,07,10,9.20
2021,04,20,07,11,9.30
2021,04,20,07,12,9.30
2021,04,20,07,13,9.40
2021,04,20,07,14,9.50
2021,04,20,07,15,9.60
2021,04,20,07,16,9.70
2021,04,20,07,17,9.80
2021,04,20,07,18,9.90
2021,04,20,07,19,10.00
2021,04,20,07,20,10.10
2021,04,20,07,21,10.20
2021,04,20,07,22,10.30
2021,04,20,07,23,10.40
2021,04,20,07,24,10.50
2021,04,20,07,25,10.60
2021,04,20,07,26,10.70
2021,04,20,07,27,10.80
2021,04,20,07,28,11.00
2021,04,20,07,29,11.10
2021,04,20,07,30,11.10
2021,04,20,07,31,11.10
2021,04,20,07,32,11.20
2021,04,20,07,33,11.30
2021,04,20,07,34,11.30
2021,04,20,07,35,11.40
2021,04,20,07,36,11.40
2021,04,20,07,37,11.50
2021,04,20,07,38,11.60
2021,04,20,07,39,11.60
2021,04,20,07,40,11.70
2021,04,20,07,41,11.80
2021,04,20,07,42,11.90
2021,04,20,07,43,12.00
2021,04,20,07,44,12.10
2021,04,20,07,45,12.20
2021,04,20,07,46,12.30
2021,04,20,07,47,12.30
2021,04,20,07,48,12.40
2021,04,20,07,49,12.50
2021,04,20,07,50,12.60
2021,04,20,07,51,12.60
2021,04,20,07,52,12.70
2021,04,20,07,53,12.80
2021,04,20,07,54,12.90
2021,04,20,07,55,13.00
2021,04,20,07,56,13.00
2021,04,20,07,57,13.10
2021,04,20,07,58,13.10
2021,04,20,07,59,13.20
2021,04,20,08,00,13.20
2021,04,20,08,01,13.20
2021,04,20,08,02,13.20
2021,04,20,08,03,13.30
2021,04,20,08,04,13.30
2021,04,20,08,05,13.30
2021,04,20,08,06,13.30
2021,04,20,08,07,13.30
2021,04,20,08,08,13.40
2021,04,20,08,09,13.40
2021,04,20,08,10,13.40
2021,04,20,08,11,13.40
2021,04,20,08,12,13.40
2021,04,20,08,13,13.40
2021,04,20,08,14,13.40
2021,04,20,08,15,13.50
2021,04,20,08,16,13.50
2021,04,20,08,17,13.60
2021,04,20,08,18,13.60
2021,04,20,08,19,13.60
2021,04,20,08,20,13.70
2021,04,20,08,21,13.70
2021,04,20,08,22,13.80
2021,04,20,08,23,13.80
2021,04,20,08,24,13.80
2021,04,20,08,25,13.80
2021,04,20,08,26,13.90
2021,04,20,08,27,14.00
2021,04,20,08,28,14.10
2021,04,20,08,29,14.10
2021,04,20,08,30,14.20
2021,04,20,08,31,14.20
2021,04,20,08,32,14.20
2021,04,20,08,33,14.30
2021,04,20,08,34,14.30
2021,04,20,08,35,14.30
2021,04,20,08,36,14.30
2021,04,20,08,37,14.40
2021,04,20,08,38,14.40
2021,04,20,08,39,14.40
2021,04,20,08,40,14.40
2021,04,20,08,41,14.40
2021,04,20,08,42,14.40
2021,04,20,08,43,14.40
2021,04,20,08,44,14.40
2021,04,20,08,45,14.40
2021,04,20,08,46,14.50
2021,04,20,08,47,14.50
2021,04,20,08,48,14.50
2021,04,20,08,49,14.60
2021,04,20,08,50,14.60
2021,04,20,08,51,14.50
2021,04,20,08,52,14.50
2021,04,20,08,53,14.50
2021,04,20,08,54,14.50
2021,04,20,08,55,14.60
2021,04,20,08,56,14.70
2021,04,20,08,57,14.80
2021,04,20,08,58,14.80
2021,04,20,08,59,14.90
2021,04,20,09,00,15.00
2021,04,20,09,01,15.10
2021,04,20,09,02,15.20
2021,04,20,09,03,15.20
2021,04,20,09,04,15.30
2021,04,20,09,05,15.30
2021,04,20,09,06,15.30
2021,04,20,09,07,15.20
2021,04,20,09,08,15.20
2021,04,20,09,09,15.10
2021,04,20,09,10,15.10
2021,04,20,09,11,15.20
2021,04,20,09,12,15.20
2021,04,20,09,13,15.20
2021,04,20,09,14,15.30
2021,04,20,09,15,15.30
2021,04,20,09,16,15.30
2021,04,20,09,17,15.40
2021,04,20,09,18,15.50
2021,04,20,09,19,15.70
2021,04,20,09,20,15.80
2021,04,20,09,21,15.90
2021,04,20,09,22,16.00
2021,04,20,09,23,16.00
2021,04,20,09,24,16.10
2021,04,20,09,25,16.20
2021,04,20,09,26,16.20
2021,04,20,09,27,16.20
2021,04,20,09,28,16.30
2021,04,20,09,29,16.30
2021,04,20,09,30,16.30
2021,04,20,09,31,16.40
2021,04,20,09,32,16.40
2021,04,20,09,33,16.30
2021,04,20,09,34,16.20
2021,04,20,09,35,16.10
2021,04,20,09,36,16.00
2021,04,20,09,37,15.90
2021,04,20,09,38,15.90
2021,04,20,09,39,15.90
2021,04,20,09,40,15.90
2021,04,20,09,41,15.90
2021,04,20,09,42,15.80
2021,04,20,09,43,15.80
2021,04,20,09,44,15.80
2021,04,20,09,45,15.80
2021,04,20,09,46,15.80
2021,04,20,09,47,15.90
2021,04,20,09,48,15.90
2021,04,20,09,49,16.00
2021,04,20,09,50,16.00
2021,04,20,09,51,16.10
2021,04,20,09,52,16.00
2021,04,20,09,53,15.90
2021,04,20,09,54,15.80
2021,04,20,09,55,15.80
2021,04,20,09,56,15.70
2021,04,20,09,57,15.70
2021,04,20,09,58,15.80
2021,04,20,09,59,15.80
2021,04,20,10,00,15.80
2021,04,20,10,01,16.00
2021,04,20,10,02,16.10
2021,04,20,10,03,16.20
2021,04,20,10,04,16.20
2021,04,20,10,05,16.30
2021,04,20,10,06,16.30
2021,04,20,10,07,16.40
2021,04,20,10,08,16.40
2021,04,20,10,09,16.40
2021,04,20,10,10,16.40
2021,04,20,10,11,16.40
2021,04,20,10,12,16.40
2021,04,20,10,13,16.40
2021,04,20,10,14,16.30
2021,04,20,10,15,16.30
2021,04,20,10,16,16.20
2021,04,20,10,17,16.20
2021,04,20,10,18,16.10
2021,04,20,10,19,16.10
2021,04,20,10,20,16.10
2021,04,20,10,21,16.10
2021,04,20,10,22,16.10
2021,04,20,10,23,16.10
2021,04,20,10,24,16.10
2021,04,20,10,25,16.20
2021,04,20,10,26,16.10
2021,04,20,10,27,16.00
2021,04,20,10,28,15.90
2021,04,20,10,29,15.90
2021,04,20,10,30,15.90
2021,04,20,10,31,15.90
2021,04,20,10,32,15.90
2021,04,20,10,33,16.00
2021,04,20,10,34,16.20
2021,04,20,10,35,16.30
2021,04,20,10,36,16.40
2021,04,20,10,37,16.40
2021,04,20,10,38,16.50
2021,04,20,10,39,16.50
2021,04,20,10,40,16.60
2021,04,20,10,41,16.60
2021,04,20,10,42,16.60
2021,04,20,10,43,16.60
2021,04,20,10,44,16.60
2021,04,20,10,45,16.70
2021,04,20,10,46,16.70
2021,04,20,10,47,16.70
2021,04,20,10,48,16.60
2021,04,20,10,49,16.50
2021,04,20,10,50,16.40
2021,04,20,10,51,16.40
2021,04,20,10,52,16.40
2021,04,20,10,53,16.50
2021,04,20,10,54,16.60
2021,04,20,10,55,16.60
2021,04,20,10,56,16.60
2021,04,20,10,57,16.60
2021,04,20,10,58,16.60
2021,04,20,10,59,16.60
2021,04,20,11,00,16.60
2021,04,20,11,01,16.60
2021,04,20,11,02,16.60
2021,04,20,11,03,16.60
2021,04,20,11,04,16.50
2021,04,20,11,05,16.50
2021,04,20,11,06,16.40
2021,04,20,11,07,16.40
2021,04,20,11,08,16.40
2021,04,20,11,09,16.50
2021,04,20,11,10,16.60
2021,04,20,11,11,16.70
2021,04,20,11,12,16.80
2021,04,20,11,13,16.90
2021,04,20,11,14,17.10
2021,04,20,11,15,17.30
2021,04,20,11,16,17.40
2021,04,20,11,17,17.60
2021,04,20,11,18,17.60
2021,04,20,11,19,17.50
2021,04,20,11,20,17.30
2021,04,20,11,21,17.20
2021,04,20,11,22,17.20
2021,04,20,11,23,17.20
2021,04,20,11,24,17.30
2021,04,20,11,25,17.20
2021,04,20,11,26,17.10
2021,04,20,11,27,17.10
2021,04,20,11,28,17.00
2021,04,20,11,29,17.00
2021,04,20,11,30,16.90
2021,04,20,11,31,16.80
2021,04,20,11,32,16.90
2021,04,20,11,33,16.90
2021,04,20,11,34,16.80
2021,04,20,11,35,16.80
2021,04,20,11,36,16.80
2021,04,20,11,37,16.80
2021,04,20,11,38,16.90
2021,04,20,11,39,16.90
2021,04,20,11,40,16.80
2021,04,20,11,41,16.80
2021,04,20,11,42,16.80
2021,04,20,11,43,16.90
2021,04,20,11,44,16.90
2021,04,20,11,45,17.00
2021,04,20,11,46,17.00
2021,04,20,11,47,17.20
2021,04,20,11,48,17.20
2021,04,20,11,49,17.20
2021,04,20,11,50,17.20
2021,04,20,11,51,17.20
2021,04,20,11,52,17.20
2021,04,20,11,53,17.20
2021,04,20,11,54,17.20
2021,04,20,11,55,17.30
2021,04,20,11,56,17.30
2021,04,20,11,57,17.30
2021,04,20,11,58,17.40
2021,04,20,11,59,17.40
2021,04,20,12,00,17.50
2021,04,20,12,01,17.60
2021,04,20,12,02,17.70
2021,04,20,12,03,17.70
2021,04,20,12,04,17.70
2021,04,20,12,05,17.80
2021,04,20,12,06,17.80
2021,04,20,12,07,17.90
2021,04,20,12,08,18.00
2021,04,20,12,09,18.10
2021,04,20,12,10,18.20
2021,04,20,12,11,18.20
2021,04,20,12,12,18.30
2021,04,20,12,13,18.30
2021,04,20,12,14,18.40
2021,04,20,12,15,18.30
2021,04,20,12,16,18.20
2021,04,20,12,17,18.20
2021,04,20,12,18,18.20
2021,04,20,12,19,18.20
2021,04,20,12,20,18.10
2021,04,20,12,21,18.10
2021,04,20,12,22,18.00
2021,04,20,12,23,18.00
2021,04,20,12,24,18.10
2021,04,20,12,25,18.10
2021,04,20,12,26,18.00
2021,04,20,12,27,18.00
2021,04,20,12,28,18.00
2021,04,20,12,29,18.10
2021,04,20,12,30,18.20
2021,04,20,12,31,18.20
2021,04,20,12,32,18.20
2021,04,20,12,33,18.20
2021,04,20,12,34,18.20
2021,04,20,12,35,18.30
2021,04,20,12,36,18.30
2021,04,20,12,37,18.40
2021,04,20,12,38,18.50
2021,04,20,12,39,18.40
2021,04,20,12,40,18.40
2021,04,20,12,41,18.30
2021,04,20,12,42,18.10
2021,04,20,12,43,18.00
2021,04,20,12,44,17.90
2021,04,20,12,45,17.90
2021,04,20,12,46,18.00
2021,04,20,12,47,18.10
2021,04,20,12,48,18.30
2021,04,20,12,49,18.40
2021,04,20,12,50,18.50
2021,04,20,12,51,18.60
2021,04,20,12,52,18.60
2021,04,20,12,53,18.70
2021,04,20,12,54,18.90
2021,04,20,12,55,19.10
2021,04,20,12,56,19.20
2021,04,20,12,57,19.30
2021,04,20,12,58,19.20
2021,04,20,12,59,19.10
2021,04,20,13,00,18.90
2021,04,20,13,01,18.80
2021,04,20,13,02,18.80
2021,04,20,13,03,18.70
2021,04,20,13,04,18.70
2021,04,20,13,05,18.70
2021,04,20,13,06,18.80
2021,04,20,13,07,18.80
2021,04,20,13,08,18.80
2021,04,20,13,09,18.80
2021,04,20,13,10,18.90
2021,04,20,13,11,18.90
2021,04,20,13,12,18.90
2021,04,20,13,13,18.80
2021,04,20,13,14,18.70
2021,04,20,13,15,18.50
2021,04,20,13,16,18.50
2021,04,20,13,17,18.50
2021,04,20,13,18,18.50
2021,04,20,13,19,18.60
2021,04,20,13,20,18.60
2021,04,20,13,21,18.70
2021,04,20,13,22,18.70
2021,04,20,13,23,18.70
2021,04,20,13,24,18.80
2021,04,20,13,25,18.90
2021,04,20,13,26,19.10
2021,04,20,13,27,19.20
2021,04,20,13,28,19.40
2021,04,20,13,29,19.50
2021,04,20,13,30,19.60
2021,04,20,13,31,19.70
2021,04,20,13,32,19.80
2021,04,20,13,33,19.80
2021,04,20,13,34,19.70
2021,04,20,13,35,19.70
2021,04,20,13,36,19.70
2021,04,20,13,37,19.70
2021,04,20,13,38,19.70
2021,04,20,13,39,19.60
2021,04,20,13,40,19.60
2021,04,20,13,41,19.50
2021,04,20,13,42,19.40
2021,04,20,13,43,19.30
2021,04,20,13,44,19.20
2021,04,20,13,45,19.10
2021,04,20,13,46,19.10
2021,04,20,13,47,19.00
2021,04,20,13,48,19.10
2021,04,20,13,49,19.10
2021,04,20,13,50,19.20
2021,04,20,13,51,19.20
2021,04,20,13,52,19.20
2021,04,20,13,53,19.30
2021,04,20,13,54,19.30
2021,04,20,13,55,19.40
2021,04,20,13,56,19.30
2021,04,20,13,57,19.30
2021,04,20,13,58,19.30
2021,04,20,13,59,19.30
2021,04,20,14,00,19.40
2021,04,20,14,01,19.50
2021,04,20,14,02,19.50
2021,04,20,14,03,19.70
2021,04,20,14,04,19.80
2021,04,20,14,05,19.80
2021,04,20,14,06,19.80
2021,04,20,14,07,19.80
2021,04,20,14,08,19.80
2021,04,20,14,09,19.80
2021,04,20,14,10,19.80
2021,04,20,14,11,19.80
2021,04,20,14,12,19.80
2021,04,20,14,13,19.80
2021,04,20,14,14,19.90
2021,04,20,14,15,19.90
2021,04,20,14,16,20.00
2021,04,20,14,17,19.90
2021,04,20,14,18,19.90
2021,04,20,14,19,19.90
2021,04,20,14,20,19.90
2021,04,20,14,21,19.90
2021,04,20,14,22,19.90
2021,04,20,14,23,19.90
2021,04,20,14,24,20.00
2021,04,20,14,25,20.00
2021,04,20,14,26,20.10
2021,04,20,14,27,20.20
2021,04,20,14,28,20.20
2021,04,20,14,29,20.20
2021,04,20,14,30,20.20
2021,04,20,14,31,20.20
2021,04,20,14,32,20.20
2021,04,20,14,33,20.00
2021,04,20,14,34,19.90
2021,04,20,14,35,19.90
2021,04,20,14,36,19.80
2021,04,20,14,37,19.70
2021,04,20,14,38,19.70
2021,04,20,14,39,19.70
2021,04,20,14,40,19.60
2021,04,20,14,41,19.60
2021,04,20,14,42,19.60
2021,04,20,14,43,19.60
2021,04,20,14,44,19.70
2021,04,20,14,45,19.80
2021,04,20,14,46,19.80
2021,04,20,14,47,19.90
2021,04,20,14,48,19.80
2021,04,20,14,49,19.80
2021,04,20,14,50,19.80
2021,04,20,14,51,19.80
2021,04,20,14,52,19.80
2021,04,20,14,53,19.80
2021,04,20,14,54,19.80
2021,04,20,14,55,19.80
2021,04,20,14,56,19.80
2021,04,20,14,57,19.80
2021,04,20,14,58,19.80
2021,04,20,14,59,19.90
2021,04,20,15,00,20.00
2021,04,20,15,01,20.20
2021,04,20,15,02,20.30
2021,04,20,15,03,20.40
2021,04,20,15,04,20.40
2021,04,20,15,05,20.40
2021,04,20,15,06,20.40
2021,04,20,15,07,20.40
2021,04,20,15,08,20.40
2021,04,20,15,09,20.30
2021,04,20,15,10,20.30
2021,04,20,15,11,20.40
2021,04,20,15,12,20.50
2021,04,20,15,13,20.60
2021,04,20,15,14,20.70
2021,04,20,15,15,20.80
2021,04,20,15,16,20.80
2021,04,20,15,17,20.80
2021,04,20,15,18,20.90
2021,04,20,15,19,20.90
2021,04,20,15,20,20.80
2021,04,20,15,21,20.60
2021,04,20,15,22,20.40
2021,04,20,15,23,20.40
2021,04,20,15,24,20.40
2021,04,20,15,25,20.30
2021,04,20,15,26,20.30
2021,04,20,15,27,20.30
2021,04,20,15,28,20.40
2021,04,20,15,29,20.40
2021,04,20,15,30,20.50
2021,04,20,15,31,20.50
2021,04,20,15,32,20.50
2021,04,20,15,33,20.50
2021,04,20,15,34,20.50
2021,04,20,15,35,20.60
2021,04,20,15,36,20.70
2021,04,20,15,37,20.70
2021,04,20,15,38,20.80
2021,04,20,15,39,20.80
2021,04,20,15,40,20.90
2021,04,20,15,41,20.90
2021,04,20,15,42,20.90
2021,04,20,15,43,21.00
2021,04,20,15,44,21.00
2021,04,20,15,45,21.00
2021,04,20,15,46,21.00
2021,04,20,15,47,21.00
2021,04,20,15,48,21.00
2021,04,20,15,49,20.90
2021,04,20,15,50,20.90
2021,04,20,15,51,20.80
2021,04,20,15,52,20.80
2021,04,20,15,53,20.80
2021,04,20,15,54,20.80
2021,04,20,15,55,20.90
2021,04,20,15,56,20.90
2021,04,20,15,57,20.90
2021,04,20,15,58,20.90
2021,04,20,15,59,20.90
2021,04,20,16,00,20.90
2021,04,20,16,01,20.80
2021,04,20,16,02,20.70
2021,04,20,16,03,20.60
2021,04,20,16,04,20.60
2021,04,20,16,05,20.60
2021,04,20,16,06,20.60
2021,04,20,16,07,20.60
2021,04,20,16,08,20.60
2021,04,20,16,09,20.60
2021,04,20,16,10,20.60
2021,04,20,16,11,20.70
2021,04,20,16,12,20.80
2021,04,20,16,13,20.90
2021,04,20,16,14,20.90
2021,04,20,16,15,21.10
2021,04,20,16,16,21.20
2021,04,20,16,17,21.20
2021,04,20,16,18,21.30
2021,04,20,16,19,21.30
2021,04,20,16,20,21.30
2021,04,20,16,21,21.40
2021,04,20,16,22,21.40
2021,04,20,16,23,21.40
2021,04,20,16,24,21.40
2021,04,20,16,25,21.30
2021,04,20,16,26,21.30
2021,04,20,16,27,21.20
2021,04,20,16,28,21.20
2021,04,20,16,29,21.20
2021,04,20,16,30,21.20
2021,04,20,16,31,21.20
2021,04,20,16,32,21.20
2021,04,20,16,33,21.20
2021,04,20,16,34,21.20
2021,04,20,16,35,21.20
2021,04,20,16,36,21.10
2021,04,20,16,37,21.10
2021,04,20,16,38,21.00
2021,04,20,16,39,20.90
2021,04,20,16,40,20.90
2021,04,20,16,41,20.90
2021,04,20,16,42,20.90
2021,04,20,16,43,20.90
2021,04,20,16,44,21.00
2021,04,20,16,45,21.10
2021,04,20,16,46,21.10
2021,04,20,16,47,21.20
2021,04,20,16,48,21.20
2021,04,20,16,49,21.30
2021,04,20,16,50,21.30
2021,04,20,16,51,21.40
2021,04,20,16,52,21.40
2021,04,20,16,53,21.50
2021,04,20,16,54,21.50
2021,04,20,16,55,21.60
2021,04,20,16,56,21.60
2021,04,20,16,57,21.70
2021,04,20,16,58,21.70
2021,04,20,16,59,21.80
2021,04,20,17,00,21.80
2021,04,20,17,01,21.80
2021,04,20,17,02,21.80
2021,04,20,17,03,21.80
2021,04,20,17,04,21.80
2021,04,20,17,05,21.80
2021,04,20,17,06,21.80
2021,04,20,17,07,21.80
2021,04,20,17,08,21.80
2021,04,20,17,09,21.80
2021,04,20,17,10,21.70
2021,04,20,17,11,21.70
2021,04,20,17,12,21.60
2021,04,20,17,13,21.60
2021,04,20,17,14,21.60
2021,04,20,17,15,21.50
2021,04,20,17,16,21.50
2021,04,20,17,17,21.40
2021,04,20,17,18,21.30
2021,04,20,17,19,21.20
2021,04,20,17,20,21.20
2021,04,20,17,21,21.10
2021,04,20,17,22,21.10
2021,04,20,17,23,21.10
2021,04,20,17,24,21.00
2021,04,20,17,25,21.00
2021,04,20,17,26,20.90
2021,04,20,17,27,20.80
2021,04,20,17,28,20.80
2021,04,20,17,29,20.80
2021,04,20,17,30,20.80
2021,04,20,17,31,20.80
2021,04,20,17,32,20.80
2021,04,20,17,33,20.90